This is the latest recevied weather packets stored in our database for station/object DJ5CM-10. If no packets are shown the sender has not sent any weather packets the latest 10 day(s).
| Time | Temp. | Humidity | Pressure | Rain* | Wind** | Luminosity | Snow |
|---|---|---|---|---|---|---|---|
| 1777729976 | 32.78° C | 21% | 1013.9 hPa | - | - | - | - |
| 1777729076 | 32.78° C | 22% | 1013.9 hPa | - | - | - | - |
| 1777728176 | 32.22° C | 22% | 1014.1 hPa | - | - | - | - |
| 1777727276 | 31.11° C | 27% | 1014.2 hPa | - | - | - | - |
| 1777726376 | 25.56° C | 31% | 1014.4 hPa | - | - | - | - |
| 1777725476 | 24.44° C | 30% | 1014.6 hPa | - | - | - | - |
| 1777724576 | 24.44° C | 32% | 1014.6 hPa | - | - | - | - |
| 1777723676 | 23.89° C | 34% | 1014.8 hPa | - | - | - | - |
| 1777722775 | 23.89° C | 36% | 1014.9 hPa | - | - | - | - |
| 1777721876 | 23.33° C | 38% | 1015.2 hPa | - | - | - | - |
| 1777720975 | 23.33° C | 39% | 1015.2 hPa | - | - | - | - |
| 1777720075 | 22.78° C | 40% | 1015.5 hPa | - | - | - | - |
| 1777719175 | 22.22° C | 42% | 1015.5 hPa | - | - | - | - |
| 1777718275 | 22.22° C | 43% | 1015.6 hPa | - | - | - | - |
| 1777717375 | 21.67° C | 44% | 1015.8 hPa | - | - | - | - |
| 1777716475 | 21.11° C | 46% | 1016 hPa | - | - | - | - |
| 1777715575 | 20.56° C | 48% | 1016.2 hPa | - | - | - | - |
| 1777714675 | 20° C | 50% | 1016.3 hPa | - | - | - | - |
| 1777713775 | 19.44° C | 51% | 1016.4 hPa | - | - | - | - |
| 1777712874 | 18.89° C | 53% | 1016.5 hPa | - | - | - | - |
| 1777711974 | 18.89° C | 55% | 1016.7 hPa | - | - | - | - |
| 1777711074 | 18.33° C | 57% | 1016.6 hPa | - | - | - | - |
| 1777710174 | 17.78° C | 58% | 1016.8 hPa | - | - | - | - |
| 1777709274 | 17.22° C | 60% | 1016.9 hPa | - | - | - | - |
| 1777708374 | 16.67° C | 62% | 1017 hPa | - | - | - | - |
* Rain since midnight (hover to see other rain measurements)
** Current wind speed in m/s (hover to see current wind gust speed)